Regional Weather Roundup
Issued by NWS

Home | Current Version | Previous Version | Graphics & Text | Print | Product List | Glossary Off
Versions: 1 2 3 4 5 6 7 8 9 10 11 12 13 14 15 16 17 18 19 20 21 22 23 24 25 26 27 28 29 30 31 32 33 34 35 36 37 38 39 40 41 42 43 44 45 46 47 48 49 50

000
ASUS43 KDTX 170701
RWRMI
MICHIGAN HOURLY REGIONAL WEATHER ROUNDUP
NATIONAL WEATHER SERVICE DETROIT/PONTIAC MI
300 AM EDT TUE OCT 17 2017

NOTE: "FAIR" INDICATES FEW OR NO CLOUDS BELOW 12,000 FEET WITH NO
SIGNIFICANT WEATHER AND/OR OBSTRUCTION TO VISIBILITY.

MIZ047>049-052>055-059>063-066>070-074>076-081>083-170800-
SOUTHEAST LOWER MICHIGAN

CITY           SKY/WX    TMP DP  RH WIND       PRES   REMARKS
ALMA           CLEAR     42  37  83 S6        30.18F
ANN ARBOR      CLEAR     35  34  96 CALM      30.24S
BAD AXE        CLEAR     40  36  85 S6        30.19F
CARO           CLEAR     37  35  92 CALM      30.19S
DETROIT CITY   CLEAR     46  40  79 SW6       30.25S
DETROIT        CLEAR     43  40  89 S6        30.26S
FLINT          CLEAR     44  38  79 S7        30.21F
GROSSE ILE     CLEAR     50  42  75 SW8       30.24S
HILLSDALE      CLEAR     45  36  70 S8        30.23S
HOWELL         CLEAR     43  40  89 SW3       30.21F

CITY           SKY/WX    TMP DP  RH WIND       PRES   REMARKS
JACKSON        CLEAR     44  37  76 S5        30.22F
LAMBERTVILLE   CLEAR     45  40  82 S3        30.26S
LANSING        CLEAR     44  37  76 S8        30.21S
LAPEER         FAIR      38  37  98 CALM      30.22S
MASON          CLEAR     46  38  76 S3        30.21F
MONROE         CLEAR     45  39  78 SW3       30.25S
MT. CLEMENS    CLEAR     44  40  86 SW5       30.22S
PONTIAC        CLEAR     40  39  97 CALM      30.22S
PORT HOPE        N/A     44  37  76 S5        30.17S
PORT HURON     CLEAR     37  36  93 CALM      30.24S
TRI CITIES     CLEAR     45  40  82 S9        30.18F
MIDLAND        FAIR      42  38  84 S3        30.17S
TROY           CLEAR     44  39  83 SW5       30.26S
SAGINAW HB     CLEAR     41  37  87 S7        30.18S
$$
MIZ043>046-050>051-056>058-064>065-071>073-077>080-170800-
SOUTHWEST LOWER MICHIGAN

CITY           SKY/WX    TMP DP  RH WIND       PRES   REMARKS
BATTLE CREEK   CLEAR     44  39  82 S8        30.22S
BENTON HARBOR  CLEAR     46  38  73 S5        30.21S
BIG RAPIDS     CLEAR     38  37  93 SE3       30.15S
COLDWATER      CLEAR     45  38  74 SW6       30.23F
FREMONT        FAIR      42  40  94 CALM      30.16S
HOLLAND        CLEAR     44  40  85 S5        30.19S
GRAND RAPIDS   CLEAR     46  40  79 S8        30.18S
IONIA          FAIR      46  38  72 S9        30.19R
LUDINGTON      CLEAR     57  42  58 SW12G20   30.12S
MARSHALL       CLEAR     44  38  78 S3        30.22S
MOUNT PLEASANT CLEAR     46  37  72 CALM      30.16S
MUSKEGON       CLEAR     59  42  53 SW13G24   30.16S
SOUTH HAVEN    CLEAR     47  39  73 S5        30.21R
$$
MIZ016>042-170800-
NORTHERN LOWER MICHIGAN

CITY           SKY/WX    TMP DP  RH WIND       PRES   REMARKS
ALPENA         PTCLDY    44  39  82 S8        30.11F
BEAVER ISLAND  CLOUDY    57  45  62 SW15G22   30.00F
BELLAIRE       MOCLDY    47  40  76 SW6       30.08F
CADILLAC       CLEAR     43  39  86 SW6       30.11S
CHARLEVOIX     MOCLDY    50  43  77 S9        30.07F
FRANKFORT      CLEAR     59  44  55 SW8G17    30.08F
GAYLORD        PTCLDY    44  37  76 SW13      30.08F
GRAYLING       CLEAR     41  37  84 S5        30.11F
HARBOR SPRINGS CLOUDY    49  42  75 SW9       30.04F
HOUGHTON LAKE  CLEAR     45  39  79 S7        30.14R
MANISTEE       CLEAR     38  37  97 E5        30.11S WCI  34
OSCODA         CLEAR     39  37  92 SW5       30.15S
PELLSTON       CLOUDY    49  42  77 SW8       30.04F
ROGERS CITY    PTCLDY    43  38  82 S12       30.08F
TRAVERSE CITY  MOCLDY    48  40  73 VRB5      30.07F
$$
MIZ007>008-015-170800-
EASTERN UPPER MICHIGAN

CITY           SKY/WX    TMP DP  RH WIND       PRES   REMARKS
KINROSS        CLOUDY    48  44  86 S7        29.99F
MACKINAC ISLAN CLOUDY    51  43  74 SW10G18   30.01F
NEWBERRY       CLOUDY    51  44  78 SW12      29.95F
S. S. MARIE    CLOUDY    47  42  83 S6        29.97F
MUNISING         N/A     50  39  66 S12G20    29.92F
$$
MIZ004>006-011>014-085-170800-
CENTRAL UPPER MICHIGAN

CITY           SKY/WX    TMP DP  RH WIND       PRES   REMARKS
MANISTIQUE     CLOUDY    54  42  63 SW6       29.96F
ESCANABA       CLOUDY    50  38  63 SW9       29.97F
MENOMINEE      CLEAR     50  38  63 SW9       30.00F
SAWYER-GWINN   PTCLDY    44  36  71 S8        29.93F
$$
MIZ001>003-009>011-084-170800-
WESTERN UPPER MICHIGAN

CITY           SKY/WX    TMP DP  RH WIND       PRES   REMARKS
IRON MOUNTAIN  CLOUDY    43  34  70 SE5       29.94F
HOUGHTON       PTCLDY    55  34  45 W14G20    29.84R
COPPER HARBOR    N/A     52  36  54 W8G20     29.81S
IRONWOOD       CLEAR     52  36  54 SW12      29.91R
$$

ABBREVIATIONS USED IN REMARKS
   TC - TEMPERATURE IN CELSIUS
  WCI - WIND CHILL INDEX
   HX - HEAT INDEX
  VSB - VISIBILITY





USA.gov is the U.S. government's official web portal to all federal, state and local government web resources and services.